Time,TemperatureF,DewpointF,PressureIn,WindDirection,WindDirectionDegrees,WindSpeedMPH,WindSpeedGustMPH,Humidity,HourlyPrecipIn,Conditions,Clouds,dailyrainin,SoftwareType,DateUTC
2013-05-28 00:05:00,50.7,47.2,29.88,ENE,67,0.0,0.0,88,0.00,,,0.00,WUHU21023XXSP,2013-05-28 05:05:00,
2013-05-28 00:12:00,50.7,47.2,29.88,ENE,67,0.0,0.0,88,0.00,,,0.00,WUHU21023XXSP,2013-05-28 05:12:00,
2013-05-28 00:18:00,50.7,47.2,29.87,ENE,67,0.0,0.0,88,0.00,,,0.00,WUHU21023XXSP,2013-05-28 05:18:00,
2013-05-28 00:25:00,50.7,47.2,29.87,ENE,67,0.0,0.0,88,0.00,,,0.00,WUHU21023XXSP,2013-05-28 05:25:00,
2013-05-28 00:31:00,50.7,47.2,29.87,ENE,67,0.0,0.0,88,0.00,,,0.00,WUHU21023XXSP,2013-05-28 05:31:00,
2013-05-28 00:38:00,50.9,47.4,29.87,NE,45,0.0,0.0,88,0.00,,,0.00,WUHU21023XXSP,2013-05-28 05:38:00,
2013-05-28 00:44:00,50.7,47.2,29.87,NE,45,0.0,0.0,88,0.00,,,0.00,WUHU21023XXSP,2013-05-28 05:44:00,
2013-05-28 00:50:00,50.7,47.2,29.87,NE,45,0.0,0.0,88,0.00,,,0.00,WUHU21023XXSP,2013-05-28 05:50:00,
2013-05-28 00:57:00,50.7,47.2,29.87,East,90,0.0,0.0,88,0.00,,,0.00,WUHU21023XXSP,2013-05-28 05:57:00,
2013-05-28 01:04:00,50.7,47.2,29.86,ENE,67,0.0,0.0,88,0.00,,,0.00,WUHU21023XXSP,2013-05-28 06:04:00,
2013-05-28 01:10:00,50.7,47.2,29.85,ENE,67,0.0,0.0,88,0.00,,,0.00,WUHU21023XXSP,2013-05-28 06:10:00,
2013-05-28 01:16:00,50.7,47.2,29.84,ESE,112,0.0,0.0,88,0.00,,,0.00,WUHU21023XXSP,2013-05-28 06:16:00,
2013-05-28 01:23:00,50.9,47.4,29.83,East,90,0.0,0.0,88,0.00,,,0.00,WUHU21023XXSP,2013-05-28 06:23:00,
2013-05-28 01:29:00,50.7,47.2,29.84,NE,45,0.0,0.0,88,0.00,,,0.00,WUHU21023XXSP,2013-05-28 06:29:00,
2013-05-28 01:35:00,50.7,47.2,29.83,NE,45,0.0,0.0,88,0.00,,,0.00,WUHU21023XXSP,2013-05-28 06:35:00,
2013-05-28 01:42:00,50.9,47.4,29.84,ENE,67,0.0,0.0,88,0.00,,,0.00,WUHU21023XXSP,2013-05-28 06:42:00,
2013-05-28 01:48:00,50.9,47.4,29.84,East,90,0.0,0.0,88,0.00,,,0.00,WUHU21023XXSP,2013-05-28 06:48:00,
2013-05-28 01:55:00,50.9,47.4,29.84,East,90,0.0,0.0,88,0.00,,,0.00,WUHU21023XXSP,2013-05-28 06:55:00,
2013-05-28 02:01:00,50.9,47.4,29.83,ENE,67,0.0,0.0,88,0.00,,,0.00,WUHU21023XXSP,2013-05-28 07:01:00,
2013-05-28 02:07:00,50.9,47.4,29.84,ENE,67,0.0,0.0,88,0.00,,,0.00,WUHU21023XXSP,2013-05-28 07:07:00,
2013-05-28 02:14:00,50.9,47.4,29.84,NE,45,0.0,0.0,88,0.00,,,0.00,WUHU21023XXSP,2013-05-28 07:14:00,
2013-05-28 02:20:00,50.9,47.4,29.83,ENE,67,0.0,0.0,88,0.00,,,0.00,WUHU21023XXSP,2013-05-28 07:20:00,
2013-05-28 02:27:00,50.9,47.4,29.82,ESE,112,0.0,0.0,88,0.04,,,0.02,WUHU21023XXSP,2013-05-28 07:27:00,
2013-05-28 02:33:00,50.9,47.4,29.82,ESE,112,0.0,0.0,88,0.04,,,0.04,WUHU21023XXSP,2013-05-28 07:33:00,
2013-05-28 02:40:00,50.9,47.4,29.81,NE,45,0.0,0.0,88,0.04,,,0.04,WUHU21023XXSP,2013-05-28 07:40:00,
2013-05-28 02:46:00,51.1,47.6,29.81,ESE,112,0.0,0.0,88,0.04,,,0.04,WUHU21023XXSP,2013-05-28 07:46:00,
2013-05-28 02:52:00,51.1,47.6,29.81,SE,135,0.0,4.0,88,0.04,,,0.04,WUHU21023XXSP,2013-05-28 07:52:00,
2013-05-28 02:59:00,51.1,47.6,29.80,ENE,67,0.0,4.0,88,0.04,,,0.04,WUHU21023XXSP,2013-05-28 07:59:00,
2013-05-28 03:05:00,51.1,47.6,29.81,ENE,67,0.0,0.0,88,0.04,,,0.04,WUHU21023XXSP,2013-05-28 08:05:00,
2013-05-28 03:12:00,51.1,47.6,29.81,East,90,0.0,0.0,88,0.04,,,0.04,WUHU21023XXSP,2013-05-28 08:12:00,
2013-05-28 03:18:00,51.1,47.6,29.80,ENE,67,0.0,0.0,88,0.04,,,0.04,WUHU21023XXSP,2013-05-28 08:18:00,
2013-05-28 03:25:00,51.1,47.6,29.80,ENE,67,0.0,0.0,88,0.00,,,0.04,WUHU21023XXSP,2013-05-28 08:25:00,
2013-05-28 03:31:00,51.1,47.6,29.80,ESE,112,0.0,0.0,88,0.02,,,0.06,WUHU21023XXSP,2013-05-28 08:31:00,
2013-05-28 03:38:00,51.1,47.6,29.82,ESE,112,0.0,0.0,88,0.04,,,0.08,WUHU21023XXSP,2013-05-28 08:38:00,
2013-05-28 03:44:00,51.1,47.6,29.81,ESE,112,0.0,0.0,88,0.06,,,0.08,WUHU21023XXSP,2013-05-28 08:44:00,
2013-05-28 03:50:00,51.1,47.6,29.81,ENE,67,0.0,0.0,88,0.06,,,0.10,WUHU21023XXSP,2013-05-28 08:50:00,
2013-05-28 03:57:00,51.1,47.6,29.81,ENE,67,0.0,0.0,88,0.06,,,0.10,WUHU21023XXSP,2013-05-28 08:57:00,
2013-05-28 04:03:00,51.1,47.6,29.81,NNE,22,0.0,0.0,88,0.06,,,0.10,WUHU21023XXSP,2013-05-28 09:03:00,
2013-05-28 04:10:00,51.1,47.6,29.80,ENE,67,0.0,0.0,88,0.08,,,0.10,WUHU21023XXSP,2013-05-28 09:10:00,
2013-05-28 04:16:00,51.1,47.6,29.80,ESE,112,0.0,2.0,88,0.08,,,0.12,WUHU21023XXSP,2013-05-28 09:16:00,
2013-05-28 04:23:00,51.1,47.6,29.80,ENE,67,0.0,2.0,88,0.08,,,0.12,WUHU21023XXSP,2013-05-28 09:23:00,
2013-05-28 04:29:00,51.1,47.6,29.80,ENE,67,0.0,0.0,88,0.06,,,0.12,WUHU21023XXSP,2013-05-28 09:29:00,
2013-05-28 04:36:00,51.1,47.6,29.80,ENE,67,0.0,0.0,88,0.04,,,0.12,WUHU21023XXSP,2013-05-28 09:36:00,
2013-05-28 04:42:00,51.1,47.6,29.80,ENE,67,0.0,0.0,88,0.04,,,0.12,WUHU21023XXSP,2013-05-28 09:42:00,
2013-05-28 04:49:00,51.1,47.6,29.79,ESE,112,0.0,0.0,88,0.02,,,0.12,WUHU21023XXSP,2013-05-28 09:49:00,
2013-05-28 04:55:00,51.1,47.6,29.79,ESE,112,0.0,5.0,88,0.02,,,0.12,WUHU21023XXSP,2013-05-28 09:55:00,
2013-05-28 05:01:00,51.1,47.6,29.78,ENE,67,0.0,0.0,88,0.02,,,0.12,WUHU21023XXSP,2013-05-28 10:01:00,
2013-05-28 05:08:00,51.3,47.8,29.78,ENE,67,0.0,0.0,88,0.00,,,0.12,WUHU21023XXSP,2013-05-28 10:08:00,
2013-05-28 05:14:00,51.4,47.9,29.79,ENE,67,0.0,0.0,88,0.00,,,0.12,WUHU21023XXSP,2013-05-28 10:14:00,
2013-05-28 05:21:00,51.4,47.9,29.79,East,90,0.0,0.0,88,0.00,,,0.12,WUHU21023XXSP,2013-05-28 10:21:00,
2013-05-28 05:27:00,51.4,47.9,29.78,ESE,112,0.0,0.0,88,0.00,,,0.12,WUHU21023XXSP,2013-05-28 10:27:00,
2013-05-28 05:34:00,51.6,48.1,29.77,NE,45,0.0,0.0,88,0.00,,,0.12,WUHU21023XXSP,2013-05-28 10:34:00,
2013-05-28 05:40:00,51.6,48.1,29.77,NE,45,0.0,0.0,88,0.02,,,0.15,WUHU21023XXSP,2013-05-28 10:40:00,
2013-05-28 05:46:00,51.6,48.1,29.78,NNE,22,0.0,0.0,88,0.04,,,0.17,WUHU21023XXSP,2013-05-28 10:46:00,
2013-05-28 05:53:00,51.6,48.1,29.79,North,0,0.0,0.0,88,0.04,,,0.17,WUHU21023XXSP,2013-05-28 10:53:00,
2013-05-28 05:59:00,51.6,48.1,29.78,SSW,202,0.0,0.0,88,0.04,,,0.17,WUHU21023XXSP,2013-05-28 10:59:00,
2013-05-28 06:06:00,51.6,48.4,29.78,SW,225,3.0,3.0,89,0.04,,,0.17,WUHU21023XXSP,2013-05-28 11:06:00,
2013-05-28 06:12:00,51.8,48.6,29.77,NNE,22,0.0,3.0,89,0.04,,,0.17,WUHU21023XXSP,2013-05-28 11:12:00,
2013-05-28 06:19:00,52.0,48.8,29.77,SE,135,0.0,3.0,89,0.06,,,0.17,WUHU21023XXSP,2013-05-28 11:19:00,
2013-05-28 06:25:00,52.0,48.8,29.77,ENE,67,0.0,3.0,89,0.06,,,0.19,WUHU21023XXSP,2013-05-28 11:25:00,
2013-05-28 06:31:00,52.0,48.8,29.77,ENE,67,0.0,0.0,89,0.06,,,0.19,WUHU21023XXSP,2013-05-28 11:31:00,
2013-05-28 06:38:00,52.0,48.8,29.79,NE,45,0.0,5.0,89,0.10,,,0.21,WUHU21023XXSP,2013-05-28 11:38:00,
2013-05-28 06:44:00,52.2,49.0,29.80,NNE,22,0.0,0.0,89,0.14,,,0.29,WUHU21023XXSP,2013-05-28 11:44:00,
2013-05-28 06:51:00,52.2,49.0,29.78,NNE,22,0.0,0.0,89,0.14,,,0.31,WUHU21023XXSP,2013-05-28 11:51:00,
2013-05-28 06:57:00,52.2,49.0,29.78,ENE,67,0.0,0.0,89,0.14,,,0.31,WUHU21023XXSP,2013-05-28 11:57:00,
2013-05-28 07:04:00,52.3,49.2,29.77,ESE,112,0.0,0.0,89,0.16,,,0.33,WUHU21023XXSP,2013-05-28 12:04:00,
2013-05-28 07:10:00,52.3,49.2,29.77,NE,45,0.0,0.0,89,0.16,,,0.33,WUHU21023XXSP,2013-05-28 12:10:00,
2013-05-28 07:17:00,52.5,49.3,29.77,East,90,0.0,0.0,89,0.14,,,0.33,WUHU21023XXSP,2013-05-28 12:17:00,
2013-05-28 07:23:00,52.7,49.3,29.78,South,180,0.0,0.0,89,0.14,,,0.33,WUHU21023XXSP,2013-05-28 12:23:00,
2013-05-28 07:29:00,52.9,49.7,29.78,South,180,0.0,0.0,89,0.20,,,0.37,WUHU21023XXSP,2013-05-28 12:29:00,
2013-05-28 07:36:00,53.2,50.1,29.78,NNE,22,0.0,0.0,89,0.20,,,0.41,WUHU21023XXSP,2013-05-28 12:36:00,
2013-05-28 07:42:00,53.2,50.1,29.77,NNE,22,0.0,0.0,89,0.16,,,0.45,WUHU21023XXSP,2013-05-28 12:42:00,
2013-05-28 07:49:00,53.4,50.2,29.77,ENE,67,0.0,0.0,89,0.16,,,0.47,WUHU21023XXSP,2013-05-28 12:49:00,
2013-05-28 07:55:00,53.4,50.2,29.76,SE,135,0.0,0.0,89,0.16,,,0.47,WUHU21023XXSP,2013-05-28 12:55:00,
2013-05-28 08:02:00,53.8,50.6,29.77,SE,135,0.0,0.0,89,0.14,,,0.47,WUHU21023XXSP,2013-05-28 13:02:00,
2013-05-28 08:08:00,54.1,50.9,29.77,SE,135,0.0,0.0,89,0.14,,,0.47,WUHU21023XXSP,2013-05-28 13:08:00,
2013-05-28 08:14:00,54.3,51.1,29.77,East,90,0.0,0.0,89,0.16,,,0.49,WUHU21023XXSP,2013-05-28 13:14:00,
2013-05-28 08:21:00,54.5,51.3,29.77,East,90,0.0,0.0,89,0.16,,,0.49,WUHU21023XXSP,2013-05-28 13:21:00,
2013-05-28 08:27:00,55.0,51.7,29.77,East,90,0.0,0.0,89,0.12,,,0.49,WUHU21023XXSP,2013-05-28 13:27:00,
2013-05-28 08:34:00,55.6,52.4,29.76,East,90,0.0,0.0,89,0.08,,,0.49,WUHU21023XXSP,2013-05-28 13:34:00,
2013-05-28 08:40:00,55.8,52.6,29.76,East,90,0.0,0.0,89,0.04,,,0.49,WUHU21023XXSP,2013-05-28 13:40:00,
2013-05-28 08:47:00,55.9,52.7,29.75,East,90,0.0,0.0,89,0.02,,,0.49,WUHU21023XXSP,2013-05-28 13:47:00,
2013-05-28 08:53:00,55.9,52.7,29.75,East,90,0.0,0.0,89,0.02,,,0.49,WUHU21023XXSP,2013-05-28 13:53:00,
2013-05-28 08:59:00,56.1,52.9,29.75,East,90,0.0,0.0,89,0.02,,,0.49,WUHU21023XXSP,2013-05-28 13:59:00,
2013-05-28 09:06:00,56.3,53.1,29.74,East,90,0.0,0.0,89,0.02,,,0.49,WUHU21023XXSP,2013-05-28 14:06:00,
2013-05-28 09:12:00,56.5,53.3,29.74,East,90,0.0,0.0,89,0.00,,,0.49,WUHU21023XXSP,2013-05-28 14:12:00,
2013-05-28 09:19:00,56.5,53.3,29.74,ENE,67,0.0,0.0,89,0.00,,,0.49,WUHU21023XXSP,2013-05-28 14:19:00,
2013-05-28 09:25:00,56.5,53.3,29.74,ENE,67,0.0,0.0,89,0.00,,,0.49,WUHU21023XXSP,2013-05-28 14:25:00,
2013-05-28 09:32:00,56.8,53.6,29.74,ENE,67,0.0,0.0,89,0.00,,,0.49,WUHU21023XXSP,2013-05-28 14:32:00,
2013-05-28 09:38:00,56.8,53.6,29.74,East,90,0.0,0.0,89,0.00,,,0.49,WUHU21023XXSP,2013-05-28 14:38:00,
2013-05-28 09:44:00,56.8,53.6,29.74,ESE,112,0.0,0.0,89,0.00,,,0.49,WUHU21023XXSP,2013-05-28 14:44:00,
2013-05-28 09:51:00,57.0,53.8,29.74,SE,135,0.0,0.0,89,0.00,,,0.49,WUHU21023XXSP,2013-05-28 14:51:00,
2013-05-28 09:57:00,57.0,53.8,29.74,SE,135,0.0,0.0,89,0.00,,,0.49,WUHU21023XXSP,2013-05-28 14:57:00,
2013-05-28 10:04:00,57.0,53.8,29.74,SE,135,5.0,5.0,89,0.00,,,0.49,WUHU21023XXSP,2013-05-28 15:04:00,
2013-05-28 10:10:00,57.0,53.8,29.74,SE,135,7.0,7.0,89,0.00,,,0.49,WUHU21023XXSP,2013-05-28 15:10:00,
2013-05-28 10:16:00,57.0,53.8,29.74,SE,135,4.0,7.0,89,0.00,,,0.49,WUHU21023XXSP,2013-05-28 15:16:00,
2013-05-28 10:23:00,57.0,53.8,29.74,SSE,157,5.0,5.0,89,0.00,,,0.49,WUHU21023XXSP,2013-05-28 15:23:00,
2013-05-28 10:29:00,57.4,54.2,29.74,SSE,157,4.0,5.0,89,0.00,,,0.49,WUHU21023XXSP,2013-05-28 15:29:00,
2013-05-28 10:36:00,57.7,54.5,29.74,SSE,157,4.0,4.0,89,0.00,,,0.49,WUHU21023XXSP,2013-05-28 15:36:00,
2013-05-28 10:42:00,58.1,54.9,29.74,SE,135,5.0,9.0,89,0.00,,,0.49,WUHU21023XXSP,2013-05-28 15:42:00,
2013-05-28 10:49:00,58.8,55.9,29.74,SSE,157,1.0,5.0,90,0.00,,,0.49,WUHU21023XXSP,2013-05-28 15:49:00,
2013-05-28 10:55:00,59.9,56.7,29.73,SE,135,0.0,6.0,89,0.00,,,0.49,WUHU21023XXSP,2013-05-28 15:55:00,
2013-05-28 11:01:00,61.0,57.8,29.72,SE,135,0.0,2.0,89,0.00,,,0.49,WUHU21023XXSP,2013-05-28 16:01:00,
2013-05-28 11:08:00,61.5,58.3,29.72,SSW,202,0.0,0.0,89,0.00,,,0.49,WUHU21023XXSP,2013-05-28 16:08:00,
2013-05-28 11:14:00,62.2,59.0,29.72,SE,135,0.0,0.0,89,0.00,,,0.49,WUHU21023XXSP,2013-05-28 16:14:00,
2013-05-28 11:21:00,62.8,59.6,29.74,SSW,202,0.0,0.0,89,0.00,,,0.49,WUHU21023XXSP,2013-05-28 16:21:00,
2013-05-28 11:27:00,63.1,59.9,29.74,SSE,157,0.0,3.0,89,0.00,,,0.49,WUHU21023XXSP,2013-05-28 16:27:00,
2013-05-28 11:34:00,63.3,60.1,29.74,South,180,0.0,3.0,89,0.00,,,0.49,WUHU21023XXSP,2013-05-28 16:34:00,
2013-05-28 11:40:00,63.7,60.5,29.74,South,180,0.0,0.0,89,0.00,,,0.49,WUHU21023XXSP,2013-05-28 16:40:00,
2013-05-28 11:46:00,63.9,60.6,29.74,SW,225,0.0,0.0,89,0.00,,,0.49,WUHU21023XXSP,2013-05-28 16:46:00,
2013-05-28 11:53:00,64.2,61.0,29.74,SE,135,0.0,0.0,89,0.00,,,0.49,WUHU21023XXSP,2013-05-28 16:53:00,
2013-05-28 11:59:00,65.1,61.8,29.74,SE,135,0.0,0.0,89,0.00,,,0.49,WUHU21023XXSP,2013-05-28 16:59:00,
2013-05-28 12:06:00,65.8,62.5,29.74,WSW,247,0.0,0.0,89,0.00,,,0.49,WUHU21023XXSP,2013-05-28 17:06:00,
2013-05-28 12:12:00,66.6,63.2,29.74,SSW,202,0.0,0.0,89,0.00,,,0.49,WUHU21023XXSP,2013-05-28 17:12:00,
2013-05-28 12:19:00,67.3,63.6,29.74,SW,225,0.0,0.0,88,0.00,,,0.49,WUHU21023XXSP,2013-05-28 17:19:00,
2013-05-28 12:25:00,68.0,64.6,29.73,SSW,202,15.0,15.0,89,0.00,,,0.49,WUHU21023XXSP,2013-05-28 17:25:00,
2013-05-28 12:31:00,69.1,65.0,29.73,SSE,157,0.0,15.0,87,0.00,,,0.49,WUHU21023XXSP,2013-05-28 17:31:00,
2013-05-28 12:38:00,70.3,65.6,29.73,South,180,8.0,12.0,85,0.00,,,0.49,WUHU21023XXSP,2013-05-28 17:38:00,
2013-05-28 12:44:00,71.2,66.1,29.73,SSW,202,6.0,12.0,84,0.00,,,0.49,WUHU21023XXSP,2013-05-28 17:44:00,
2013-05-28 12:51:00,72.0,65.8,29.72,SW,225,8.0,12.0,81,0.00,,,0.49,WUHU21023XXSP,2013-05-28 17:51:00,
2013-05-28 12:57:00,72.5,65.6,29.73,SSW,202,6.0,11.0,79,0.00,,,0.49,WUHU21023XXSP,2013-05-28 17:57:00,
2013-05-28 13:04:00,72.7,65.4,29.73,SSW,202,0.0,11.0,78,0.00,,,0.49,WUHU21023XXSP,2013-05-28 18:04:00,
2013-05-28 13:10:00,72.3,65.1,29.74,SW,225,4.0,11.0,78,0.00,,,0.49,WUHU21023XXSP,2013-05-28 18:10:00,
2013-05-28 13:16:00,72.0,64.7,29.73,SW,225,7.0,7.0,78,0.00,,,0.49,WUHU21023XXSP,2013-05-28 18:16:00,
2013-05-28 13:23:00,71.2,64.0,29.74,South,180,0.0,14.0,78,0.00,,,0.49,WUHU21023XXSP,2013-05-28 18:23:00,
2013-05-28 13:29:00,71.1,64.2,29.74,South,180,0.0,5.0,79,0.00,,,0.49,WUHU21023XXSP,2013-05-28 18:29:00,
2013-05-28 13:36:00,70.9,64.0,29.74,SSW,202,5.0,9.0,79,0.00,,,0.49,WUHU21023XXSP,2013-05-28 18:36:00,
2013-05-28 13:42:00,70.7,63.8,29.73,South,180,6.0,6.0,79,0.00,,,0.49,WUHU21023XXSP,2013-05-28 18:42:00,
2013-05-28 13:49:00,70.7,63.8,29.73,SW,225,0.0,6.0,79,0.00,,,0.49,WUHU21023XXSP,2013-05-28 18:49:00,
2013-05-28 13:55:00,70.7,64.2,29.73,SW,225,5.0,5.0,80,0.00,,,0.49,WUHU21023XXSP,2013-05-28 18:55:00,
2013-05-28 14:01:00,70.7,64.2,29.73,SSW,202,0.0,5.0,80,0.00,,,0.49,WUHU21023XXSP,2013-05-28 19:01:00,
2013-05-28 14:08:00,70.7,64.2,29.73,SSW,202,5.0,5.0,80,0.00,,,0.49,WUHU21023XXSP,2013-05-28 19:08:00,
2013-05-28 14:14:00,70.7,64.2,29.73,SSW,202,0.0,15.0,80,0.00,,,0.49,WUHU21023XXSP,2013-05-28 19:14:00,
2013-05-28 14:21:00,70.5,64.0,29.73,South,180,0.0,15.0,80,0.00,,,0.49,WUHU21023XXSP,2013-05-28 19:21:00,
2013-05-28 14:27:00,70.5,64.0,29.73,SSW,202,0.0,0.0,80,0.00,,,0.49,WUHU21023XXSP,2013-05-28 19:27:00,
2013-05-28 14:33:00,70.5,64.0,29.73,SSW,202,0.0,7.0,80,0.00,,,0.49,WUHU21023XXSP,2013-05-28 19:33:00,
2013-05-28 14:40:00,70.3,63.9,29.73,South,180,0.0,7.0,80,0.00,,,0.49,WUHU21023XXSP,2013-05-28 19:40:00,
2013-05-28 14:46:00,70.2,64.0,29.73,SSW,202,0.0,0.0,81,0.00,,,0.49,WUHU21023XXSP,2013-05-28 19:46:00,
2013-05-28 14:53:00,70.0,63.8,29.73,SW,225,0.0,0.0,81,0.00,,,0.49,WUHU21023XXSP,2013-05-28 19:53:00,
2013-05-28 14:59:00,69.6,63.8,29.73,WSW,247,0.0,0.0,82,0.00,,,0.49,WUHU21023XXSP,2013-05-28 19:59:00,
2013-05-28 15:06:00,69.6,63.8,29.73,WSW,247,0.0,0.0,82,0.00,,,0.49,WUHU21023XXSP,2013-05-28 20:06:00,
2013-05-28 15:13:00,69.6,63.8,29.73,SW,225,0.0,0.0,82,0.00,,,0.49,WUHU21023XXSP,2013-05-28 20:13:00,
2013-05-28 15:19:00,69.6,63.8,29.73,West,270,0.0,0.0,82,0.00,,,0.49,WUHU21023XXSP,2013-05-28 20:19:00,
2013-05-28 15:25:00,69.6,64.2,29.73,West,270,0.0,0.0,83,0.00,,,0.49,WUHU21023XXSP,2013-05-28 20:25:00,
2013-05-28 15:32:00,69.4,63.7,29.73,SW,225,0.0,0.0,82,0.00,,,0.49,WUHU21023XXSP,2013-05-28 20:32:00,
2013-05-28 15:38:00,69.4,64.0,29.73,SW,225,0.0,0.0,83,0.00,,,0.49,WUHU21023XXSP,2013-05-28 20:38:00,
2013-05-28 15:45:00,69.4,64.0,29.73,SW,225,0.0,0.0,83,0.00,,,0.49,WUHU21023XXSP,2013-05-28 20:45:00,
2013-05-28 15:51:00,69.4,64.0,29.73,SW,225,0.0,0.0,83,0.00,,,0.49,WUHU21023XXSP,2013-05-28 20:51:00,
2013-05-28 15:58:00,69.4,64.0,29.73,SW,225,0.0,0.0,83,0.00,,,0.49,WUHU21023XXSP,2013-05-28 20:58:00,
2013-05-28 16:04:00,69.6,64.2,29.73,SW,225,0.0,0.0,83,0.00,,,0.49,WUHU21023XXSP,2013-05-28 21:04:00,
2013-05-28 16:10:00,69.6,64.2,29.72,SW,225,0.0,0.0,83,0.00,,,0.49,WUHU21023XXSP,2013-05-28 21:10:00,
2013-05-28 16:17:00,69.8,64.3,29.73,SW,225,0.0,0.0,83,0.00,,,0.49,WUHU21023XXSP,2013-05-28 21:17:00,
2013-05-28 16:23:00,69.8,64.3,29.73,SSW,202,0.0,0.0,83,0.00,,,0.49,WUHU21023XXSP,2013-05-28 21:23:00,
2013-05-28 16:30:00,69.8,64.3,29.73,SSW,202,0.0,0.0,83,0.00,,,0.49,WUHU21023XXSP,2013-05-28 21:30:00,
2013-05-28 16:36:00,70.3,64.9,29.72,SE,135,0.0,0.0,83,0.00,,,0.49,WUHU21023XXSP,2013-05-28 21:36:00,
2013-05-28 16:43:00,70.9,65.4,29.72,SE,135,0.0,0.0,83,0.00,,,0.49,WUHU21023XXSP,2013-05-28 21:43:00,
2013-05-28 16:49:00,71.2,65.8,29.72,SE,135,0.0,0.0,83,0.00,,,0.49,WUHU21023XXSP,2013-05-28 21:49:00,
2013-05-28 16:56:00,71.4,65.6,29.72,SE,135,0.0,0.0,82,0.00,,,0.49,WUHU21023XXSP,2013-05-28 21:56:00,
2013-05-28 17:03:00,71.4,65.6,29.72,SE,135,0.0,0.0,82,0.00,,,0.49,WUHU21023XXSP,2013-05-28 22:03:00,
2013-05-28 17:10:00,71.4,65.6,29.72,SE,135,0.0,0.0,82,0.00,,,0.49,WUHU21023XXSP,2013-05-28 22:10:00,
2013-05-28 17:16:00,71.4,65.6,29.73,SE,135,0.0,0.0,82,0.00,,,0.49,WUHU21023XXSP,2013-05-28 22:16:00,
2013-05-28 17:23:00,71.4,65.6,29.72,SE,135,0.0,0.0,82,0.00,,,0.49,WUHU21023XXSP,2013-05-28 22:23:00,
2013-05-28 17:30:00,71.4,65.6,29.72,SE,135,0.0,0.0,82,0.00,,,0.49,WUHU21023XXSP,2013-05-28 22:30:00,
2013-05-28 17:36:00,71.4,66.0,29.72,SE,135,0.0,0.0,83,0.00,,,0.49,WUHU21023XXSP,2013-05-28 22:36:00,
2013-05-28 17:42:00,71.4,66.0,29.71,SE,135,0.0,0.0,83,0.00,,,0.49,WUHU21023XXSP,2013-05-28 22:42:00,
2013-05-28 17:49:00,71.2,65.8,29.71,SE,135,0.0,0.0,83,0.00,,,0.49,WUHU21023XXSP,2013-05-28 22:49:00,
2013-05-28 17:55:00,71.2,65.8,29.71,SE,135,0.0,0.0,83,0.00,,,0.49,WUHU21023XXSP,2013-05-28 22:55:00,
2013-05-28 18:02:00,71.2,65.8,29.71,SE,135,0.0,0.0,83,0.00,,,0.49,WUHU21023XXSP,2013-05-28 23:02:00,
2013-05-28 18:08:00,70.9,65.4,29.72,SE,135,0.0,0.0,83,0.00,,,0.49,WUHU21023XXSP,2013-05-28 23:08:00,
2013-05-28 18:15:00,70.7,65.2,29.72,SE,135,0.0,0.0,83,0.00,,,0.49,WUHU21023XXSP,2013-05-28 23:15:00,
2013-05-28 18:22:00,70.5,65.1,29.72,SE,135,0.0,0.0,83,0.00,,,0.49,WUHU21023XXSP,2013-05-28 23:22:00,
2013-05-28 18:28:00,70.5,65.1,29.72,SE,135,0.0,0.0,83,0.00,,,0.49,WUHU21023XXSP,2013-05-28 23:28:00,
2013-05-28 18:34:00,70.3,64.9,29.71,SE,135,0.0,0.0,83,0.00,,,0.49,WUHU21023XXSP,2013-05-28 23:34:00,
2013-05-28 18:41:00,70.3,64.9,29.71,SE,135,0.0,0.0,83,0.00,,,0.49,WUHU21023XXSP,2013-05-28 23:41:00,
2013-05-28 18:47:00,70.5,65.1,29.71,SE,135,0.0,0.0,83,0.00,,,0.49,WUHU21023XXSP,2013-05-28 23:47:00,
2013-05-28 18:54:00,70.7,65.6,29.70,SE,135,0.0,0.0,84,0.00,,,0.49,WUHU21023XXSP,2013-05-28 23:54:00,
2013-05-28 19:00:00,70.9,65.8,29.70,SE,135,0.0,0.0,84,0.00,,,0.49,WUHU21023XXSP,2013-05-29 00:00:00,
2013-05-28 19:06:00,70.9,65.8,29.69,SE,135,0.0,0.0,84,0.00,,,0.49,WUHU21023XXSP,2013-05-29 00:06:00,
2013-05-28 19:13:00,70.7,65.6,29.69,East,90,0.0,0.0,84,0.00,,,0.49,WUHU21023XXSP,2013-05-29 00:13:00,
2013-05-28 19:20:00,70.5,65.4,29.69,North,0,0.0,0.0,84,0.00,,,0.49,WUHU21023XXSP,2013-05-29 00:20:00,
2013-05-28 19:26:00,70.3,65.2,29.70,North,0,0.0,0.0,84,0.00,,,0.49,WUHU21023XXSP,2013-05-29 00:26:00,
2013-05-28 19:33:00,70.2,65.0,29.71,ESE,112,0.0,0.0,84,0.00,,,0.49,WUHU21023XXSP,2013-05-29 00:33:00,
2013-05-28 19:39:00,70.0,64.9,29.71,ESE,112,0.0,0.0,84,0.00,,,0.49,WUHU21023XXSP,2013-05-29 00:39:00,
2013-05-28 19:46:00,69.6,64.5,29.69,East,90,0.0,0.0,84,0.00,,,0.49,WUHU21023XXSP,2013-05-29 00:46:00,
2013-05-28 19:52:00,69.4,64.3,29.69,NNE,22,0.0,0.0,84,0.00,,,0.49,WUHU21023XXSP,2013-05-29 00:52:00,
2013-05-28 19:58:00,69.1,64.0,29.70,ESE,112,0.0,0.0,84,0.00,,,0.49,WUHU21023XXSP,2013-05-29 00:58:00,
2013-05-28 20:05:00,68.9,64.2,29.70,ESE,112,0.0,0.0,85,0.00,,,0.49,WUHU21023XXSP,2013-05-29 01:05:00,
2013-05-28 20:11:00,68.7,64.0,29.69,ESE,112,0.0,0.0,85,0.00,,,0.49,WUHU21023XXSP,2013-05-29 01:11:00,
2013-05-28 20:18:00,68.5,63.8,29.69,East,90,0.0,0.0,85,0.00,,,0.49,WUHU21023XXSP,2013-05-29 01:18:00,
2013-05-28 20:24:00,68.4,63.7,29.69,East,90,0.0,0.0,85,0.00,,,0.49,WUHU21023XXSP,2013-05-29 01:24:00,
2013-05-28 20:31:00,68.2,63.5,29.68,East,90,0.0,0.0,85,0.00,,,0.49,WUHU21023XXSP,2013-05-29 01:31:00,
2013-05-28 20:37:00,67.8,63.1,29.68,East,90,0.0,0.0,85,0.00,,,0.49,WUHU21023XXSP,2013-05-29 01:37:00,
2013-05-28 20:43:00,67.8,63.1,29.68,East,90,0.0,0.0,85,0.00,,,0.49,WUHU21023XXSP,2013-05-29 01:43:00,
2013-05-28 20:50:00,67.8,63.1,29.69,East,90,0.0,0.0,85,0.00,,,0.49,WUHU21023XXSP,2013-05-29 01:50:00,
2013-05-28 20:56:00,67.6,63.3,29.72,WNW,292,0.0,0.0,86,0.00,,,0.49,WUHU21023XXSP,2013-05-29 01:56:00,
2013-05-28 21:03:00,67.5,63.1,29.72,WNW,292,0.0,0.0,86,0.00,,,0.49,WUHU21023XXSP,2013-05-29 02:03:00,
2013-05-28 21:09:00,67.3,62.9,29.74,SSW,202,0.0,0.0,86,0.12,,,0.55,WUHU21023XXSP,2013-05-29 02:09:00,
2013-05-28 21:16:00,67.3,62.9,29.73,NNE,22,0.0,0.0,86,0.26,,,0.70,WUHU21023XXSP,2013-05-29 02:16:00,
2013-05-28 21:22:00,67.3,62.9,29.74,WNW,292,0.0,0.0,86,0.29,,,0.76,WUHU21023XXSP,2013-05-29 02:22:00,
2013-05-28 21:28:00,67.6,63.6,29.75,NW,315,0.0,0.0,87,0.31,,,0.80,WUHU21023XXSP,2013-05-29 02:28:00,
2013-05-28 21:35:00,67.6,63.6,29.74,NW,315,0.0,0.0,87,0.33,,,0.82,WUHU21023XXSP,2013-05-29 02:35:00,
2013-05-28 21:41:00,67.6,63.6,29.74,NW,315,0.0,0.0,87,0.33,,,0.82,WUHU21023XXSP,2013-05-29 02:41:00,
2013-05-28 21:48:00,67.6,63.6,29.74,NW,315,0.0,0.0,87,0.33,,,0.82,WUHU21023XXSP,2013-05-29 02:48:00,
2013-05-28 21:54:00,67.5,63.4,29.76,SSW,202,0.0,0.0,87,0.33,,,0.82,WUHU21023XXSP,2013-05-29 02:54:00,
2013-05-28 22:01:00,67.3,63.2,29.76,West,270,0.0,0.0,87,0.35,,,0.84,WUHU21023XXSP,2013-05-29 03:01:00,
2013-05-28 22:07:00,67.3,63.2,29.75,SW,225,0.0,5.0,87,0.29,,,0.84,WUHU21023XXSP,2013-05-29 03:07:00,
2013-05-28 22:13:00,67.1,63.1,29.74,WNW,292,0.0,1.0,87,0.08,,,0.84,WUHU21023XXSP,2013-05-29 03:13:00,
2013-05-28 22:20:00,66.9,62.9,29.74,WSW,247,0.0,0.0,87,0.06,,,0.84,WUHU21023XXSP,2013-05-29 03:20:00,
2013-05-28 22:26:00,66.7,62.7,29.73,NW,315,0.0,0.0,87,0.04,,,0.84,WUHU21023XXSP,2013-05-29 03:26:00,
2013-05-28 22:33:00,66.4,62.3,29.73,NW,315,0.0,0.0,87,0.02,,,0.84,WUHU21023XXSP,2013-05-29 03:33:00,
2013-05-28 22:39:00,66.2,62.2,29.72,NW,315,0.0,0.0,87,0.02,,,0.84,WUHU21023XXSP,2013-05-29 03:39:00,
2013-05-28 22:46:00,66.0,62.0,29.74,NW,315,0.0,0.0,87,0.02,,,0.84,WUHU21023XXSP,2013-05-29 03:46:00,
2013-05-28 22:52:00,65.5,61.5,29.75,SW,225,0.0,0.0,87,0.02,,,0.84,WUHU21023XXSP,2013-05-29 03:52:00,
2013-05-28 22:58:00,65.3,61.3,29.76,SW,225,0.0,0.0,87,0.00,,,0.84,WUHU21023XXSP,2013-05-29 03:58:00,
2013-05-28 23:01:00,65.1,61.2,29.75,SSW,202,0.0,0.0,87,0.00,,,0.84,WUHU21023XXSP,2013-05-29 04:01:00,
2013-05-28 23:03:00,65.1,61.2,29.75,SSW,202,0.0,0.0,87,0.00,,,0.84,WUHU21023XXSP,2013-05-29 04:03:00,
2013-05-28 23:07:00,65.1,61.2,29.75,SSW,202,0.0,0.0,87,0.00,,,0.84,WUHU21023XXSP,2013-05-29 04:07:00,
2013-05-28 23:13:00,64.9,61.0,29.75,SSW,202,0.0,0.0,87,0.00,,,0.84,WUHU21023XXSP,2013-05-29 04:13:00,
2013-05-28 23:16:00,64.8,60.8,29.75,SSW,202,0.0,0.0,87,0.00,,,0.84,WUHU21023XXSP,2013-05-29 04:16:00,
2013-05-28 23:20:00,64.8,60.8,29.75,SSW,202,0.0,0.0,87,0.00,,,0.84,WUHU21023XXSP,2013-05-29 04:20:00,
2013-05-28 23:26:00,64.6,60.7,29.75,SSW,202,0.0,0.0,87,0.00,,,0.84,WUHU21023XXSP,2013-05-29 04:26:00,
2013-05-28 23:33:00,64.4,60.5,29.75,SSW,202,0.0,0.0,87,0.00,,,0.84,WUHU21023XXSP,2013-05-29 04:33:00,
2013-05-28 23:39:00,64.2,60.3,29.76,SSW,202,0.0,0.0,87,0.00,,,0.84,WUHU21023XXSP,2013-05-29 04:39:00,
2013-05-28 23:46:00,64.0,60.1,29.77,SE,135,0.0,0.0,87,0.00,,,0.84,WUHU21023XXSP,2013-05-29 04:46:00,
2013-05-28 23:52:00,64.0,60.1,29.77,SE,135,0.0,0.0,87,0.00,,,0.84,WUHU21023XXSP,2013-05-29 04:52:00,
2013-05-28 23:58:00,64.0,60.1,29.77,SE,135,0.0,0.0,87,0.00,,,0.84,WUHU21023XXSP,2013-05-29 04:58:00,